weather station
Area: 7197 km2
The highest point: Čupec (819 m.s.l.)
Total stations: 33
Stations online: 33
Stations offline: 0
Current weather
15°C

Meteorological map - weather stations in Jihomoravský

. The meteorological maps show weather information from WARIO weather stations

Weather stations Jihomoravský

 UpdatesNameStatusTemperatureHumidityWind speedWind direction
5.8.2021 09:55Olešnice14.1 °C94.4 %2.8 m/s SE
5.8.2021 09:55Archlebov14.7 °C100.0 %1.6 m/s NE
5.8.2021 09:55Boskovice15.2 °C92.3 %0.9 m/s E
5.8.2021 09:55Brno - Královo Pole14.6 °C90.6 %1.2 m/s SW
5.8.2021 09:55Brno - Líšeň14.9 °C87.9 %1.3 m/s NE
5.8.2021 09:55Brno - Vinohrady14.5 °C95.4 %2.0 m/s SW
5.8.2021 09:55Brno - Kníničky15.0 °C100.0 %0.9 m/s SW
5.8.2021 09:55Býkovice13.3 °C100.0 %3.1 m/s S
5.8.2021 09:54Bzenec16.1 °C90.4 %0.0 m/s SW
5.8.2021 09:55Dobšice17.1 °C85.5 %2.5 m/s NW
5.8.2021 09:55Holubice15.2 °C100.0 %2.0 m/s N
5.8.2021 09:54Moravany14.5 °C94.5 %0.0 m/s SW
5.8.2021 09:55Dolní Dubňany14.7 °C93.8 %2.1 m/s SW
5.8.2021 09:55Brno - Jih15.5 °C92.5 %1.0 m/s NE
5.8.2021 09:55Svatobořice16.3 °C98.4 %0.0 m/s NE
5.8.2021 09:55Mikulov15.0 °C97.4 %1.7 m/s N
5.8.2021 09:54Moravské Bránice15.7 °C96.8 %2.3 m/s E
5.8.2021 09:55Nebovidy14.3 °C93.5 %1.7 m/s NW
5.8.2021 09:54Troubsko14.3 °C91.4 %2.1 m/s N
5.8.2021 09:55Kravsko14.2 °C90.0 %1.3 m/s W
5.8.2021 09:55Pozořice15.1 °C94.2 %1.2 m/s NE
5.8.2021 09:55Předklášteří14.8 °C89.9 %1.2 m/s SE
5.8.2021 09:55Brno - Přízřenice15.2 °C90.7 %0.0 m/s SE
5.8.2021 09:54Šlapanice15.5 °C89.3 %0.0 m/s NW
5.8.2021 09:55Strážnice GUMEX15.1 °C99.1 %1.3 m/s SW
5.8.2021 09:54Němčičky14.6 °C95.9 %0.0 m/s NW
5.8.2021 09:54Veselí nad Moravou15.1 °C98.6 %1.1 m/s NE
5.8.2021 09:55Veselí nad Moravou16.1 °C100.0 %0.0 m/s W
5.8.2021 09:55Kněževes Veselka11.2 °C98.8 %2.3 m/s N
5.8.2021 09:55Vlasatice15.3 °C89.5 %2.9 m/s SW
5.8.2021 09:55Vrbovec15.1 °C94.4 %0.6 m/s NW
5.8.2021 09:55Rájec-Jestřebí13.8 °C100.0 %1.5 m/s NE
5.8.2021 09:55Žarošice15.0 °C95.3 %1.2 m/s NE
Email notifications
Enter your email address to subscribe to notifications about news at warioweather.com. Your email address will not be used for any purpose other than sending these emails and will not be provided to any third party. The subscription can be ended at any time.
All data are only indicative. The portal administrator has no responsibility for potentially incorrect data and related consequences. Publishing or further sharing of content from www.warioweather.com is only allowed with written consent from WANET s.r.o.